Date String (YYYY-MM-DD hh:mm:ss) UTC,Instrument flags,Ambient pressure (hPa),Sample flow (lpm),Bypass flow (lpm),Sample temperature (°C),Ambient temperature (°C),ASC tube jacket temperature (°C),LED temperature (°C),Box temperature (°C),Sample RH (%),Span deviation,Mass concentration (μg/m³),Mass concentration (μg/m³),Mass concentration (μg/m³)
DateTimeUTC,F1_M11,P_M11,Q1_M11,Q2_M11,T1_M11,T2_M11,T3_M11,T4_M11,T5_M11,U1_M11,ZSPAN_M11,X0_M11,X2_M11,X1_M11
2022-03-20 12:00:00,,0820.0,5.00,0.00,23.7,22.7,00.0,32.7,25.4,07.9,0000.0,0010.33,0004.44,0002.52
2022-03-20 12:01:00,,0820.0,5.01,0.00,23.7,22.7,00.0,32.7,25.4,07.9,0000.0,0010.36,0004.43,0002.48
2022-03-20 12:02:00,,0820.0,5.00,0.00,23.7,22.8,00.0,32.7,25.4,07.9,0000.0,0010.30,0004.40,0002.48
2022-03-20 12:03:00,,0820.0,5.00,0.00,23.6,22.7,00.0,32.7,25.4,07.9,0000.0,0010.12,0004.39,0002.49
2022-03-20 12:04:00,,0820.0,5.00,0.00,23.6,22.7,00.0,32.7,25.4,08.0,0000.0,0010.35,0004.39,0002.51
2022-03-20 12:05:00,,0820.0,5.01,0.00,23.6,22.7,00.0,32.6,25.4,08.3,0000.0,0010.40,0004.40,0002.51
2022-03-20 12:06:00,,0819.9,5.00,0.00,23.6,22.7,00.0,32.6,25.4,08.5,0000.0,0010.29,0004.34,0002.50
2022-03-20 12:07:00,,0820.0,5.00,0.00,23.6,22.7,00.0,32.6,25.4,08.5,0000.0,0010.19,0004.28,0002.50
2022-03-20 12:08:00,,0819.9,5.01,0.00,23.6,22.7,00.0,32.6,25.4,08.5,0000.0,0010.07,0004.26,0002.49
2022-03-20 12:09:00,,0820.0,5.01,0.00,23.6,22.7,00.0,32.6,25.3,08.5,0000.0,0009.81,0004.19,0002.48
2022-03-20 12:10:00,,0819.9,4.99,0.00,23.6,22.7,00.0,32.6,25.3,08.5,0000.0,0010.42,0004.26,0002.51
2022-03-20 12:11:00,,0819.9,4.99,0.00,23.6,22.7,00.0,32.6,25.3,08.3,0000.0,0010.45,0004.25,0002.53
2022-03-20 12:12:00,,0819.9,4.99,0.00,23.6,22.7,00.0,32.6,25.3,08.3,0000.0,0010.67,0004.28,0002.60
2022-03-20 12:13:00,,0819.9,5.01,0.00,23.6,22.7,00.0,32.6,25.3,08.2,0000.0,0010.98,0004.33,0002.61
2022-03-20 12:14:00,,0819.9,5.01,0.00,23.6,22.7,00.0,32.6,25.3,08.2,0000.0,0010.83,0004.32,0002.62
2022-03-20 12:15:00,,0819.9,5.00,0.00,23.6,22.7,00.0,32.6,25.3,08.2,0000.0,0010.58,0004.32,0002.62
2022-03-20 12:16:00,,0819.9,4.99,0.00,23.6,22.6,00.0,32.6,25.3,08.3,0000.0,0010.55,0004.32,0002.63
2022-03-20 12:17:00,,0820.0,5.02,0.00,23.6,22.6,00.0,32.6,25.3,08.4,0000.0,0010.80,0004.38,0002.65
2022-03-20 12:18:00,,0820.0,4.99,0.00,23.6,22.7,00.0,32.6,25.3,08.5,0000.0,0011.09,0004.43,0002.65
2022-03-20 12:19:00,,0819.9,4.99,0.00,23.6,22.7,00.0,32.6,25.3,08.4,0000.0,0011.25,0004.46,0002.67
2022-03-20 12:20:00,,0819.9,5.01,0.00,23.6,22.7,00.0,32.6,25.2,08.5,0000.0,0011.17,0004.45,0002.69
2022-03-20 12:21:00,,0819.9,5.00,0.00,23.6,22.6,00.0,32.6,25.2,08.5,0000.0,0010.67,0004.44,0002.70
2022-03-20 12:22:00,,0819.9,5.00,0.00,23.6,22.6,00.0,32.6,25.2,08.4,0000.0,0011.07,0004.49,0002.70
2022-03-20 12:23:00,,0819.9,4.99,0.00,23.6,22.6,00.0,32.6,25.3,08.4,0000.0,0011.03,0004.48,0002.70
2022-03-20 12:24:00,,0819.9,4.99,0.00,23.6,22.6,00.0,32.6,25.3,08.3,0000.0,0010.71,0004.42,0002.69
2022-03-20 12:25:00,,0820.0,5.01,0.00,23.5,22.6,00.0,32.6,25.3,08.3,0000.0,0010.94,0004.47,0002.68
2022-03-20 12:26:00,,0819.9,4.99,0.00,23.5,22.6,00.0,32.6,25.2,08.3,0000.0,0011.00,0004.49,0002.66
2022-03-20 12:27:00,,0819.9,4.99,0.00,23.5,22.6,00.0,32.6,25.2,08.4,0000.0,0010.83,0004.42,0002.64
2022-03-20 12:28:00,,0819.9,5.00,0.00,23.5,22.5,00.0,32.5,25.1,08.3,0000.0,0010.61,0004.37,0002.60
2022-03-20 12:29:00,,0819.9,5.01,0.00,23.5,22.5,00.0,32.5,25.1,08.2,0000.0,0010.10,0004.31,0002.60
2022-03-20 12:30:00,,0819.9,5.02,0.00,23.5,22.5,00.0,32.5,25.1,08.1,0000.0,0009.92,0004.26,0002.59
2022-03-20 12:31:00,,0819.9,4.99,0.00,23.5,22.5,00.0,32.5,25.1,08.0,0000.0,0009.99,0004.28,0002.58
2022-03-20 12:32:00,,0819.9,5.00,0.00,23.5,22.4,00.0,32.5,25.1,08.0,0000.0,0010.08,0004.26,0002.54
2022-03-20 12:33:00,,0819.9,5.01,0.00,23.5,22.4,00.0,32.5,25.0,08.1,0000.0,0009.78,0004.24,0002.52
2022-03-20 12:34:00,,0819.9,5.00,0.00,23.4,22.4,00.0,32.5,25.1,08.3,0000.0,0009.46,0004.21,0002.48
2022-03-20 12:35:00,,0819.9,4.99,0.00,23.4,22.4,00.0,32.5,25.1,08.5,0000.0,0009.34,0004.22,0002.49
2022-03-20 12:36:00,,0819.8,5.01,0.00,23.4,22.4,00.0,32.5,25.1,08.7,0000.0,0009.28,0004.23,0002.51
2022-03-20 12:37:00,,0819.8,4.98,0.00,23.4,22.4,00.0,32.5,25.1,08.7,0000.0,0009.40,0004.24,0002.54
2022-03-20 12:38:00,,0819.8,5.02,0.00,23.4,22.4,00.0,32.5,25.0,08.8,0000.0,0009.58,0004.28,0002.58
2022-03-20 12:39:00,,0819.8,4.99,0.00,23.4,22.4,00.0,32.5,25.0,08.9,0000.0,0009.64,0004.34,0002.63
2022-03-20 12:40:00,,0819.8,5.01,0.00,23.4,22.4,00.0,32.5,25.1,08.9,0000.0,0009.89,0004.43,0002.65
2022-03-20 12:41:00,,0819.8,5.00,0.00,23.4,22.4,00.0,32.5,25.1,09.0,0000.0,0010.68,0004.51,0002.70
2022-03-20 12:42:00,,0819.8,5.00,0.00,23.4,22.4,00.0,32.5,25.1,08.9,0000.0,0011.22,0004.56,0002.73
2022-03-20 12:43:00,,0819.8,5.00,0.00,23.4,22.4,00.0,32.5,25.1,09.1,0000.0,0011.23,0004.59,0002.77
2022-03-20 12:44:00,,0819.8,5.01,0.00,23.4,22.4,00.0,32.5,25.1,08.8,0000.0,0011.21,0004.61,0002.82
2022-03-20 12:45:00,,0819.7,5.01,0.00,23.4,22.4,00.0,32.4,25.0,08.9,0000.0,0011.34,0004.63,0002.87
2022-03-20 12:46:00,,0819.8,4.99,0.00,23.4,22.4,00.0,32.4,25.0,08.8,0000.0,0011.51,0004.68,0002.90
2022-03-20 12:47:00,,0819.7,4.99,0.00,23.3,22.4,00.0,32.4,25.0,08.8,0000.0,0011.51,0004.69,0002.92
2022-03-20 12:48:00,,0819.7,5.00,0.00,23.3,22.3,00.0,32.4,25.0,08.8,0000.0,0011.43,0004.72,0002.95
2022-03-20 12:49:00,,0819.8,5.00,0.00,23.3,22.3,00.0,32.4,25.0,08.8,0000.0,0011.44,0004.78,0002.97
2022-03-20 12:50:00,,0819.8,5.00,0.00,23.3,22.3,00.0,32.4,25.0,08.8,0000.0,0011.46,0004.78,0002.98
2022-03-20 12:51:00,,0819.8,5.00,0.00,23.3,22.3,00.0,32.4,25.0,08.8,0000.0,0011.34,0004.73,0002.98
2022-03-20 12:52:00,,0819.8,5.01,0.00,23.3,22.3,00.0,32.4,25.0,08.8,0000.0,0010.91,0004.70,0002.96
2022-03-20 12:53:00,,0819.7,5.00,0.00,23.3,22.3,00.0,32.4,24.9,08.8,0000.0,0010.52,0004.67,0002.98
2022-03-20 12:54:00,,0819.7,4.99,0.00,23.3,22.3,00.0,32.4,25.0,08.7,0000.0,0010.52,0004.65,0003.00
2022-03-20 12:55:00,,0819.7,5.00,0.00,23.3,22.3,00.0,32.4,24.9,08.7,0000.0,0010.41,0004.62,0002.99
2022-03-20 12:56:00,,0819.7,5.01,0.00,23.3,22.2,00.0,32.3,24.9,08.7,0000.0,0010.44,0004.68,0002.97
2022-03-20 12:57:00,,0819.7,4.99,0.00,23.2,22.2,00.0,32.4,24.9,08.7,0000.0,0010.42,0004.71,0002.95
2022-03-20 12:58:00,,0819.7,4.99,0.00,23.2,22.2,00.0,32.3,24.9,08.6,0000.0,0010.43,0004.70,0002.95
2022-03-20 12:59:00,,0819.7,5.00,0.00,23.2,22.2,00.0,32.3,24.9,08.6,0000.0,0010.42,0004.67,0002.93
